Time,TemperatureF,DewpointF,PressureIn,WindDirection,WindDirectionDegrees,WindSpeedMPH,WindSpeedGustMPH,Humidity,HourlyPrecipIn,Conditions,Clouds,dailyrainin,SolarRadiationWatts/m^2,SoftwareType,DateUTC
2013-07-22 00:00:00,80.8,74.8,29.86,SSW,192,0.0,6.0,82,0.00,,---,0.00,0.00,VWS V14.00,2013-07-22 05:00:00,
2013-07-22 00:01:00,80.8,74.8,29.87,South,190,0.0,5.0,82,0.00,,---,0.00,0.00,VWS V14.00,2013-07-22 05:01:00,
2013-07-22 00:06:00,80.7,74.7,29.87,South,182,0.0,9.0,82,0.00,,---,0.00,0.00,VWS V14.00,2013-07-22 05:06:00,
2013-07-22 00:11:00,80.6,74.6,29.87,South,190,0.0,10.0,82,0.00,,---,0.00,0.00,VWS V14.00,2013-07-22 05:11:00,
2013-07-22 00:16:00,80.6,74.6,29.87,SSW,194,0.0,10.0,82,0.00,,---,0.00,0.00,VWS V14.00,2013-07-22 05:16:00,
2013-07-22 00:21:00,80.5,74.9,29.87,South,170,0.0,10.0,83,0.00,,---,0.00,0.00,VWS V14.00,2013-07-22 05:21:00,
2013-07-22 00:26:00,80.5,74.9,29.87,South,191,0.0,10.0,83,0.00,,---,0.00,0.00,VWS V14.00,2013-07-22 05:26:00,
2013-07-22 00:30:00,80.5,74.9,29.87,South,191,0.0,10.0,83,0.00,,---,0.00,0.00,VWS V14.00,2013-07-22 05:30:00,
2013-07-22 00:31:00,80.4,74.8,29.86,South,191,0.0,0.0,83,0.00,,---,0.00,0.00,VWS V14.00,2013-07-22 05:31:00,
2013-07-22 00:36:00,80.3,74.7,29.86,South,169,0.0,7.0,83,0.00,,---,0.00,0.00,VWS V14.00,2013-07-22 05:36:00,
2013-07-22 00:41:00,80.3,74.7,29.86,South,184,0.0,7.0,83,0.00,,---,0.00,0.00,VWS V14.00,2013-07-22 05:41:00,
2013-07-22 00:46:00,80.2,74.6,29.86,South,180,0.0,7.0,83,0.00,,---,0.00,0.00,VWS V14.00,2013-07-22 05:46:00,
2013-07-22 00:51:00,80.1,74.5,29.86,SSW,213,6.0,7.0,83,0.00,,---,0.00,0.00,VWS V14.00,2013-07-22 05:51:00,
2013-07-22 00:56:00,80.1,74.5,29.86,South,186,0.0,9.0,83,0.00,,---,0.00,0.00,VWS V14.00,2013-07-22 05:56:00,
2013-07-22 01:00:00,80.1,74.5,29.86,South,186,0.0,9.0,83,0.00,,---,0.00,0.00,VWS V14.00,2013-07-22 06:00:00,
2013-07-22 01:01:00,80.0,74.4,29.86,South,185,0.0,11.0,83,0.00,,---,0.00,0.00,VWS V14.00,2013-07-22 06:01:00,
2013-07-22 01:06:00,80.0,74.4,29.86,SSW,200,0.0,11.0,83,0.00,,---,0.00,0.00,VWS V14.00,2013-07-22 06:06:00,
2013-07-22 01:11:00,79.9,74.3,29.86,South,185,0.0,11.0,83,0.00,,---,0.00,0.00,VWS V14.00,2013-07-22 06:11:00,
2013-07-22 01:16:00,79.8,74.2,29.86,WSW,248,6.0,11.0,83,0.00,,---,0.00,0.00,VWS V14.00,2013-07-22 06:16:00,
2013-07-22 01:21:00,79.8,74.2,29.87,South,185,0.0,11.0,83,0.00,,---,0.00,0.00,VWS V14.00,2013-07-22 06:21:00,
2013-07-22 01:26:00,79.8,74.2,29.86,South,190,0.0,11.0,83,0.00,,---,0.00,0.00,VWS V14.00,2013-07-22 06:26:00,
2013-07-22 01:30:00,79.8,74.2,29.86,South,190,0.0,11.0,83,0.00,,---,0.00,0.00,VWS V14.00,2013-07-22 06:30:00,
2013-07-22 01:31:00,79.7,74.1,29.86,SSW,198,6.0,14.0,83,0.00,,---,0.00,0.00,VWS V14.00,2013-07-22 06:31:00,
2013-07-22 01:36:00,79.7,74.1,29.86,SSW,196,9.0,14.0,83,0.00,,---,0.00,0.00,VWS V14.00,2013-07-22 06:36:00,
2013-07-22 01:41:00,79.6,74.0,29.86,South,180,7.0,14.0,83,0.00,,---,0.00,0.00,VWS V14.00,2013-07-22 06:41:00,
2013-07-22 01:46:00,79.5,74.2,29.85,SSW,196,2.0,14.0,84,0.00,,---,0.00,0.00,VWS V14.00,2013-07-22 06:46:00,
2013-07-22 01:51:00,79.4,74.2,29.85,WSW,238,5.0,14.0,84,0.00,,---,0.00,0.00,VWS V14.00,2013-07-22 06:51:00,
2013-07-22 01:56:00,79.2,73.9,29.85,SSW,200,0.0,14.0,84,0.00,,---,0.00,0.00,VWS V14.00,2013-07-22 06:56:00,
2013-07-22 02:00:00,79.2,73.9,29.85,WSW,238,1.0,14.0,84,0.00,,---,0.00,0.00,VWS V14.00,2013-07-22 07:00:00,
2013-07-22 02:01:00,79.1,74.2,29.85,South,191,6.0,12.0,85,0.00,,---,0.00,0.00,VWS V14.00,2013-07-22 07:01:00,
2013-07-22 02:06:00,79.1,74.2,29.85,South,180,0.0,13.0,85,0.00,,---,0.00,0.00,VWS V14.00,2013-07-22 07:06:00,
2013-07-22 02:11:00,79.0,74.1,29.85,SSW,204,3.0,13.0,85,0.00,,---,0.00,0.00,VWS V14.00,2013-07-22 07:11:00,
2013-07-22 02:16:00,79.0,74.1,29.85,SSW,213,7.0,13.0,85,0.00,,---,0.00,0.00,VWS V14.00,2013-07-22 07:16:00,
2013-07-22 02:21:00,78.9,74.0,29.84,South,184,0.0,13.0,85,0.00,,---,0.00,0.00,VWS V14.00,2013-07-22 07:21:00,
2013-07-22 02:26:00,78.8,74.3,29.84,South,190,0.0,13.0,86,0.00,,---,0.00,0.00,VWS V14.00,2013-07-22 07:26:00,
2013-07-22 02:30:00,78.8,74.3,29.84,SSW,201,0.0,13.0,86,0.00,,---,0.00,0.00,VWS V14.00,2013-07-22 07:30:00,
2013-07-22 02:31:00,78.7,74.2,29.84,SSW,196,0.0,13.0,86,0.00,,---,0.00,0.00,VWS V14.00,2013-07-22 07:31:00,
2013-07-22 02:36:00,78.7,74.2,29.84,SW,225,0.0,13.0,86,0.00,,---,0.00,0.00,VWS V14.00,2013-07-22 07:36:00,
2013-07-22 02:41:00,78.6,74.1,29.84,SSW,192,0.0,13.0,86,0.00,,---,0.00,0.00,VWS V14.00,2013-07-22 07:41:00,
2013-07-22 02:46:00,78.6,74.1,29.84,South,190,9.0,16.0,86,0.00,,---,0.00,0.00,VWS V14.00,2013-07-22 07:46:00,
2013-07-22 02:51:00,78.7,74.2,29.84,SSW,203,0.0,16.0,86,0.00,,---,0.00,0.00,VWS V14.00,2013-07-22 07:51:00,
2013-07-22 02:56:00,78.6,74.1,29.84,SW,217,3.0,16.0,86,0.00,,---,0.00,0.00,VWS V14.00,2013-07-22 07:56:00,
2013-07-22 03:00:00,78.6,74.1,29.84,SSW,203,0.0,16.0,86,0.00,,---,0.00,0.00,VWS V14.00,2013-07-22 08:00:00,
2013-07-22 03:01:00,78.5,74.0,29.84,SSW,192,2.0,11.0,86,0.00,,---,0.00,0.00,VWS V14.00,2013-07-22 08:01:00,
2013-07-22 03:06:00,78.5,74.3,29.84,SSW,212,0.0,13.0,87,0.00,,---,0.00,0.00,VWS V14.00,2013-07-22 08:06:00,
2013-07-22 03:11:00,78.5,74.3,29.84,SSW,210,0.0,13.0,87,0.00,,---,0.00,0.00,VWS V14.00,2013-07-22 08:11:00,
2013-07-22 03:16:00,78.4,74.2,29.85,WSW,237,0.0,13.0,87,0.00,,---,0.00,0.00,VWS V14.00,2013-07-22 08:16:00,
2013-07-22 03:21:00,78.4,74.2,29.85,SSW,205,3.0,15.0,87,0.00,,---,0.00,0.00,VWS V14.00,2013-07-22 08:21:00,
2013-07-22 03:26:00,78.4,74.2,29.85,South,185,5.0,15.0,87,0.00,,---,0.00,0.00,VWS V14.00,2013-07-22 08:26:00,
2013-07-22 03:30:00,78.4,74.6,29.85,SSW,208,2.0,15.0,88,0.00,,---,0.00,0.00,VWS V14.00,2013-07-22 08:30:00,
2013-07-22 03:31:00,78.3,74.5,29.85,WSW,238,0.0,9.0,88,0.00,,---,0.00,0.00,VWS V14.00,2013-07-22 08:31:00,
2013-07-22 03:36:00,78.3,74.5,29.85,SSW,200,0.0,9.0,88,0.00,,---,0.00,0.00,VWS V14.00,2013-07-22 08:36:00,
2013-07-22 03:41:00,78.2,74.4,29.85,SSW,202,3.0,12.0,88,0.00,,---,0.00,0.00,VWS V14.00,2013-07-22 08:41:00,
2013-07-22 03:46:00,78.2,74.4,29.85,SSW,205,0.0,17.0,88,0.00,,---,0.00,0.00,VWS V14.00,2013-07-22 08:46:00,
2013-07-22 03:51:00,78.2,74.4,29.86,SSW,193,0.0,17.0,88,0.00,,---,0.00,0.00,VWS V14.00,2013-07-22 08:51:00,
2013-07-22 03:56:00,78.1,74.3,29.86,South,182,6.0,17.0,88,0.00,,---,0.00,0.00,VWS V14.00,2013-07-22 08:56:00,
2013-07-22 04:00:00,78.1,74.3,29.86,SSW,211,1.0,17.0,88,0.00,,---,0.00,0.00,VWS V14.00,2013-07-22 09:00:00,
2013-07-22 04:01:00,78.1,74.3,29.86,South,189,0.0,10.0,88,0.00,,---,0.00,0.00,VWS V14.00,2013-07-22 09:01:00,
2013-07-22 04:06:00,78.0,74.2,29.86,SSW,201,0.0,10.0,88,0.00,,---,0.00,0.00,VWS V14.00,2013-07-22 09:06:00,
2013-07-22 04:11:00,78.0,74.5,29.85,SW,235,8.0,11.0,89,0.00,,---,0.00,0.00,VWS V14.00,2013-07-22 09:11:00,
2013-07-22 04:16:00,78.0,74.5,29.86,WSW,250,10.0,13.0,89,0.00,,---,0.00,0.00,VWS V14.00,2013-07-22 09:16:00,
2013-07-22 04:21:00,77.9,74.4,29.85,SSE,165,5.0,13.0,89,0.00,,---,0.00,0.00,VWS V14.00,2013-07-22 09:21:00,
2013-07-22 04:26:00,77.8,74.3,29.85,SSW,198,2.0,14.0,89,0.00,,---,0.00,0.00,VWS V14.00,2013-07-22 09:26:00,
2013-07-22 04:30:00,77.8,74.3,29.85,SSE,165,3.0,14.0,89,0.00,,---,0.00,0.00,VWS V14.00,2013-07-22 09:30:00,
2013-07-22 04:31:00,77.7,74.2,29.85,SSW,196,5.0,11.0,89,0.00,,---,0.00,0.00,VWS V14.00,2013-07-22 09:31:00,
2013-07-22 04:36:00,77.7,74.2,29.85,WSW,241,9.0,13.0,89,0.00,,---,0.00,0.00,VWS V14.00,2013-07-22 09:36:00,
2013-07-22 04:41:00,77.6,74.1,29.84,SW,217,0.0,13.0,89,0.00,,---,0.00,0.00,VWS V14.00,2013-07-22 09:41:00,
2013-07-22 04:46:00,77.6,74.1,29.84,SW,223,2.0,14.0,89,0.00,,---,0.00,0.00,VWS V14.00,2013-07-22 09:46:00,
2013-07-22 04:51:00,77.5,74.0,29.84,SSW,207,6.0,17.0,89,0.00,,---,0.00,0.00,VWS V14.00,2013-07-22 09:51:00,
2013-07-22 04:56:00,77.4,73.9,29.84,SW,218,2.0,17.0,89,0.00,,---,0.00,0.00,VWS V14.00,2013-07-22 09:56:00,
2013-07-22 05:00:00,77.5,74.0,29.84,South,177,5.0,17.0,89,0.00,,---,0.00,0.00,VWS V14.00,2013-07-22 10:00:00,
2013-07-22 05:01:00,77.4,73.9,29.85,SSW,212,0.0,12.0,89,0.00,,---,0.00,0.00,VWS V14.00,2013-07-22 10:01:00,
2013-07-22 05:06:00,77.3,73.8,29.85,WSW,239,4.0,14.0,89,0.00,,---,0.00,0.00,VWS V14.00,2013-07-22 10:06:00,
2013-07-22 05:11:00,77.3,73.8,29.85,SSW,195,6.0,14.0,89,0.00,,---,0.00,0.00,VWS V14.00,2013-07-22 10:11:00,
2013-07-22 05:16:00,77.3,73.8,29.85,SSW,198,2.0,17.0,89,0.00,,---,0.00,0.00,VWS V14.00,2013-07-22 10:16:00,
2013-07-22 05:21:00,77.3,73.8,29.85,SSW,194,7.0,17.0,89,0.00,,---,0.00,0.00,VWS V14.00,2013-07-22 10:21:00,
2013-07-22 05:26:00,77.3,73.8,29.85,SSW,192,6.0,17.0,89,0.00,,---,0.00,0.00,VWS V14.00,2013-07-22 10:26:00,
2013-07-22 05:30:00,77.3,73.8,29.85,SW,221,2.0,12.0,89,0.00,,---,0.00,0.00,VWS V14.00,2013-07-22 10:30:00,
2013-07-22 05:35:00,77.3,74.1,29.85,SSW,205,3.0,12.0,90,0.00,,---,0.00,0.00,VWS V14.00,2013-07-22 10:35:00,
2013-07-22 05:40:00,77.3,74.1,29.85,WSW,246,4.0,12.0,90,0.00,,---,0.00,0.00,VWS V14.00,2013-07-22 10:40:00,
2013-07-22 05:45:00,77.2,74.0,29.85,SSW,203,6.0,15.0,90,0.00,,---,0.00,0.00,VWS V14.00,2013-07-22 10:45:00,
2013-07-22 05:50:00,77.2,74.0,29.85,SSW,195,0.0,15.0,90,0.00,,---,0.00,0.00,VWS V14.00,2013-07-22 10:50:00,
2013-07-22 05:55:00,77.2,74.0,29.85,South,190,0.0,15.0,90,0.00,,---,0.00,0.00,VWS V14.00,2013-07-22 10:55:00,
2013-07-22 06:00:00,77.2,74.0,29.85,WSW,247,12.0,13.0,90,0.00,,---,0.00,0.00,VWS V14.00,2013-07-22 11:00:00,
2013-07-22 06:05:00,77.2,74.0,29.85,WSW,241,0.0,14.0,90,0.00,,---,0.00,0.00,VWS V14.00,2013-07-22 11:05:00,
2013-07-22 06:10:00,77.2,74.0,29.85,SSW,211,0.0,14.0,90,0.00,,---,0.00,0.00,VWS V14.00,2013-07-22 11:10:00,
2013-07-22 06:15:00,77.3,74.1,29.85,WSW,240,9.0,14.0,90,0.00,,---,0.00,5.00,VWS V14.00,2013-07-22 11:15:00,
2013-07-22 06:20:00,77.3,74.1,29.85,SW,231,5.0,14.0,90,0.00,,---,0.00,7.00,VWS V14.00,2013-07-22 11:20:00,
2013-07-22 06:25:00,77.3,74.1,29.85,WSW,238,0.0,14.0,90,0.00,,---,0.00,7.00,VWS V14.00,2013-07-22 11:25:00,
2013-07-22 06:30:00,77.3,74.1,29.85,SW,227,3.0,14.0,90,0.00,,---,0.00,9.00,VWS V14.00,2013-07-22 11:30:00,
2013-07-22 06:35:00,77.3,74.1,29.84,SSW,196,9.0,14.0,90,0.00,,---,0.00,11.00,VWS V14.00,2013-07-22 11:35:00,
2013-07-22 06:40:00,77.4,74.2,29.85,SW,221,0.0,14.0,90,0.00,,---,0.00,19.00,VWS V14.00,2013-07-22 11:40:00,
2013-07-22 06:45:00,77.4,74.2,29.85,SW,230,0.0,14.0,90,0.00,,---,0.00,25.00,VWS V14.00,2013-07-22 11:45:00,
2013-07-22 06:50:00,77.5,74.3,29.85,SW,221,5.0,14.0,90,0.00,,---,0.00,21.00,VWS V14.00,2013-07-22 11:50:00,
2013-07-22 06:55:00,77.5,74.3,29.86,SW,223,6.0,14.0,90,0.00,,---,0.00,18.00,VWS V14.00,2013-07-22 11:55:00,
2013-07-22 07:00:00,77.5,74.3,29.86,SSW,198,1.0,13.0,90,0.00,,---,0.00,26.00,VWS V14.00,2013-07-22 12:00:00,
2013-07-22 07:05:00,77.6,74.4,29.87,SW,231,5.0,13.0,90,0.00,,---,0.00,23.00,VWS V14.00,2013-07-22 12:05:00,
2013-07-22 07:10:00,77.6,74.4,29.87,SW,231,4.0,13.0,90,0.00,,---,0.00,33.00,VWS V14.00,2013-07-22 12:10:00,
2013-07-22 07:15:00,77.6,74.4,29.87,WSW,241,4.0,13.0,90,0.00,,---,0.00,28.00,VWS V14.00,2013-07-22 12:15:00,
2013-07-22 07:20:00,77.7,74.5,29.87,South,175,3.0,18.0,90,0.00,,---,0.00,35.00,VWS V14.00,2013-07-22 12:20:00,
2013-07-22 07:25:00,77.7,74.5,29.87,SW,232,11.0,18.0,90,0.00,,---,0.00,49.00,VWS V14.00,2013-07-22 12:25:00,
2013-07-22 07:30:00,77.8,74.6,29.87,SW,223,1.0,8.0,90,0.00,,---,0.00,93.00,VWS V14.00,2013-07-22 12:30:00,
2013-07-22 07:35:00,78.0,74.8,29.88,SW,217,1.0,8.0,90,0.00,,---,0.00,65.00,VWS V14.00,2013-07-22 12:35:00,
2013-07-22 07:40:00,78.1,74.9,29.87,SSW,207,0.0,11.0,90,0.00,,---,0.00,100.00,VWS V14.00,2013-07-22 12:40:00,
2013-07-22 07:45:00,78.2,75.0,29.87,WSW,253,1.0,11.0,90,0.00,,---,0.00,163.00,VWS V14.00,2013-07-22 12:45:00,
2013-07-22 07:50:00,78.4,75.2,29.88,WSW,246,4.0,11.0,90,0.00,,---,0.00,127.00,VWS V14.00,2013-07-22 12:50:00,
2013-07-22 07:55:00,78.6,75.1,29.88,West,275,5.0,12.0,89,0.00,,---,0.00,169.00,VWS V14.00,2013-07-22 12:55:00,
2013-07-22 08:00:00,78.7,75.2,29.88,SSW,213,6.0,10.0,89,0.00,,---,0.00,169.00,VWS V14.00,2013-07-22 13:00:00,
2013-07-22 08:05:00,78.8,75.3,29.88,SW,225,0.0,10.0,89,0.00,,---,0.00,104.00,VWS V14.00,2013-07-22 13:05:00,
2013-07-22 08:10:00,78.8,75.3,29.88,WSW,256,0.0,11.0,89,0.00,,---,0.00,109.00,VWS V14.00,2013-07-22 13:10:00,
2013-07-22 08:15:00,78.8,75.3,29.88,SW,235,2.0,11.0,89,0.00,,---,0.00,132.00,VWS V14.00,2013-07-22 13:15:00,
2013-07-22 08:20:00,78.9,75.4,29.88,SW,217,7.0,11.0,89,0.00,,---,0.00,165.00,VWS V14.00,2013-07-22 13:20:00,
2013-07-22 08:25:00,79.0,75.5,29.88,SW,223,2.0,13.0,89,0.00,,---,0.00,146.00,VWS V14.00,2013-07-22 13:25:00,
2013-07-22 08:30:00,79.0,75.2,29.88,SW,227,0.0,11.0,88,0.00,,---,0.00,165.00,VWS V14.00,2013-07-22 13:30:00,
2013-07-22 08:35:00,79.2,75.7,29.88,WSW,238,4.0,11.0,89,0.00,,---,0.00,185.00,VWS V14.00,2013-07-22 13:35:00,
2013-07-22 08:40:00,79.3,75.4,29.88,SW,230,4.0,11.0,88,0.00,,---,0.00,144.00,VWS V14.00,2013-07-22 13:40:00,
2013-07-22 08:45:00,79.5,75.6,29.88,SW,233,12.0,13.0,88,0.00,,---,0.00,271.00,VWS V14.00,2013-07-22 13:45:00,
2013-07-22 08:50:00,79.8,75.9,29.88,WSW,246,4.0,13.0,88,0.00,,---,0.00,223.00,VWS V14.00,2013-07-22 13:50:00,
2013-07-22 08:55:00,79.9,75.7,29.88,West,261,5.0,16.0,87,0.00,,---,0.00,195.00,VWS V14.00,2013-07-22 13:55:00,
2013-07-22 09:00:00,80.0,75.8,29.88,SW,229,0.0,7.0,87,0.00,,---,0.00,183.00,VWS V14.00,2013-07-22 14:00:00,
2013-07-22 09:05:00,80.1,75.9,29.87,WSW,254,10.0,13.0,87,0.00,,---,0.00,160.00,VWS V14.00,2013-07-22 14:05:00,
2013-07-22 09:10:00,80.1,75.9,29.88,SW,229,5.0,15.0,87,0.00,,---,0.00,113.00,VWS V14.00,2013-07-22 14:10:00,
2013-07-22 09:15:00,80.0,75.8,29.88,WNW,283,3.0,15.0,87,0.00,,---,0.00,193.00,VWS V14.00,2013-07-22 14:15:00,
2013-07-22 09:20:00,80.0,75.8,29.89,South,182,2.0,15.0,87,0.00,,---,0.00,104.00,VWS V14.00,2013-07-22 14:20:00,
2013-07-22 09:25:00,79.9,75.7,29.89,SW,231,3.0,15.0,87,0.00,,---,0.00,178.00,VWS V14.00,2013-07-22 14:25:00,
2013-07-22 09:30:00,80.0,75.8,29.89,SW,214,0.0,7.0,87,0.00,,---,0.00,91.00,VWS V14.00,2013-07-22 14:30:00,
2013-07-22 09:35:00,80.0,75.8,29.90,SW,217,0.0,7.0,87,0.00,,---,0.00,69.00,VWS V14.00,2013-07-22 14:35:00,
2013-07-22 09:40:00,79.9,75.7,29.90,West,267,3.0,10.0,87,0.00,,---,0.00,21.00,VWS V14.00,2013-07-22 14:40:00,
2013-07-22 09:45:00,79.8,75.6,29.90,SW,230,4.0,10.0,87,0.00,,---,0.00,16.00,VWS V14.00,2013-07-22 14:45:00,
2013-07-22 09:50:00,79.7,75.8,29.89,SSW,197,0.0,10.0,88,0.00,,---,0.00,14.00,VWS V14.00,2013-07-22 14:50:00,
2013-07-22 09:55:00,79.6,75.7,29.90,SSW,199,0.0,10.0,88,0.00,,---,0.00,11.00,VWS V14.00,2013-07-22 14:55:00,
2013-07-22 10:00:00,79.4,75.5,29.90,WSW,239,0.0,4.0,88,0.00,,---,0.00,12.00,VWS V14.00,2013-07-22 15:00:00,
2013-07-22 10:05:00,79.4,75.5,29.90,West,260,10.0,10.0,88,0.00,,---,0.00,12.00,VWS V14.00,2013-07-22 15:05:00,
2013-07-22 10:10:00,79.4,75.9,29.92,North,349,0.0,10.0,89,0.00,,---,0.00,0.00,VWS V14.00,2013-07-22 15:10:00,
2013-07-22 10:15:00,79.0,74.8,29.93,West,264,2.0,15.0,87,1.91,,---,0.14,5.00,VWS V14.00,2013-07-22 15:15:00,
2013-07-22 10:20:00,77.0,72.8,29.93,WSW,248,0.0,15.0,87,2.39,,---,0.30,0.00,VWS V14.00,2013-07-22 15:20:00,
2013-07-22 10:25:00,75.8,72.0,29.93,WSW,237,0.0,15.0,88,2.67,,---,0.49,0.00,VWS V14.00,2013-07-22 15:25:00,
2013-07-22 10:30:00,75.0,72.2,29.92,WSW,238,2.0,4.0,91,2.21,,---,0.67,0.00,VWS V14.00,2013-07-22 15:30:00,
2013-07-22 10:35:00,74.8,72.6,29.91,SW,236,2.0,9.0,93,1.95,,---,0.84,5.00,VWS V14.00,2013-07-22 15:35:00,
2013-07-22 10:40:00,75.1,73.6,29.91,SW,232,0.0,9.0,95,1.88,,---,1.00,5.00,VWS V14.00,2013-07-22 15:40:00,
2013-07-22 10:45:00,75.2,73.7,29.91,SW,232,0.0,9.0,95,1.46,,---,1.13,0.00,VWS V14.00,2013-07-22 15:45:00,
2013-07-22 10:50:00,75.1,73.6,29.91,South,182,0.0,9.0,95,1.13,,---,1.24,5.00,VWS V14.00,2013-07-22 15:50:00,
2013-07-22 10:55:00,75.1,73.6,29.90,WSW,250,1.0,9.0,95,0.80,,---,1.33,9.00,VWS V14.00,2013-07-22 15:55:00,
2013-07-22 11:00:00,75.1,73.6,29.90,WSW,240,0.0,6.0,95,0.51,,---,1.38,12.00,VWS V14.00,2013-07-22 16:00:00,
2013-07-22 11:05:00,75.0,73.5,29.90,SW,235,5.0,6.0,95,0.19,,---,1.39,18.00,VWS V14.00,2013-07-22 16:05:00,
2013-07-22 11:10:00,74.7,73.2,29.91,West,272,0.0,10.0,95,0.07,,---,1.39,12.00,VWS V14.00,2013-07-22 16:10:00,
2013-07-22 11:15:00,74.5,73.0,29.92,WSW,252,0.0,10.0,95,0.05,,---,1.39,5.00,VWS V14.00,2013-07-22 16:15:00,
2013-07-22 11:20:00,74.5,73.0,29.92,SW,224,0.0,10.0,95,0.00,,---,1.39,5.00,VWS V14.00,2013-07-22 16:20:00,
2013-07-22 11:25:00,74.5,73.3,29.92,West,266,4.0,10.0,96,0.00,,---,1.40,7.00,VWS V14.00,2013-07-22 16:25:00,
2013-07-22 11:30:00,74.6,73.4,29.93,SW,232,0.0,6.0,96,0.00,,---,1.40,11.00,VWS V14.00,2013-07-22 16:30:00,
2013-07-22 11:35:00,74.7,73.5,29.93,SSW,198,3.0,6.0,96,0.00,,---,1.40,9.00,VWS V14.00,2013-07-22 16:35:00,
2013-07-22 11:40:00,74.9,73.7,29.93,South,189,5.0,10.0,96,0.00,,---,1.40,11.00,VWS V14.00,2013-07-22 16:40:00,
2013-07-22 11:45:00,75.1,73.9,29.94,SSW,194,4.0,11.0,96,0.00,,---,1.40,9.00,VWS V14.00,2013-07-22 16:45:00,
2013-07-22 11:50:00,75.2,74.0,29.93,SW,218,0.0,11.0,96,0.00,,---,1.40,7.00,VWS V14.00,2013-07-22 16:50:00,
2013-07-22 11:55:00,75.3,74.1,29.93,SSW,211,0.0,11.0,96,0.00,,---,1.40,7.00,VWS V14.00,2013-07-22 16:55:00,
2013-07-22 12:00:00,75.3,74.1,29.92,SW,227,0.0,7.0,96,0.00,,---,1.40,11.00,VWS V14.00,2013-07-22 17:00:00,
2013-07-22 12:05:00,75.4,74.2,29.92,SW,234,0.0,7.0,96,0.00,,---,1.40,12.00,VWS V14.00,2013-07-22 17:05:00,
2013-07-22 12:10:00,75.4,74.2,29.92,SSW,208,0.0,7.0,96,0.00,,---,1.40,18.00,VWS V14.00,2013-07-22 17:10:00,
2013-07-22 12:15:00,75.4,74.2,29.91,SE,139,0.0,7.0,96,0.00,,---,1.40,28.00,VWS V14.00,2013-07-22 17:15:00,
2013-07-22 12:20:00,75.3,74.1,29.91,South,187,0.0,7.0,96,0.00,,---,1.40,39.00,VWS V14.00,2013-07-22 17:20:00,
2013-07-22 12:25:00,75.3,74.1,29.92,SSW,199,5.0,7.0,96,0.00,,---,1.40,60.00,VWS V14.00,2013-07-22 17:25:00,
2013-07-22 12:30:00,75.2,74.0,29.92,SSW,194,5.0,6.0,96,0.00,,---,1.40,69.00,VWS V14.00,2013-07-22 17:30:00,
2013-07-22 12:35:00,75.1,73.9,29.91,SSE,159,0.0,6.0,96,0.00,,---,1.40,76.00,VWS V14.00,2013-07-22 17:35:00,
2013-07-22 12:40:00,75.0,73.8,29.91,South,178,0.0,6.0,96,0.00,,---,1.40,76.00,VWS V14.00,2013-07-22 17:40:00,
2013-07-22 12:45:00,74.9,73.7,29.92,South,176,0.0,6.0,96,0.00,,---,1.40,84.00,VWS V14.00,2013-07-22 17:45:00,
2013-07-22 12:50:00,74.8,73.6,29.92,SSE,159,4.0,6.0,96,0.00,,---,1.40,84.00,VWS V14.00,2013-07-22 17:50:00,
2013-07-22 12:55:00,74.8,73.6,29.92,SE,143,5.0,7.0,96,0.00,,---,1.40,70.00,VWS V14.00,2013-07-22 17:55:00,
2013-07-22 13:00:00,74.5,73.3,29.91,SSE,148,0.0,7.0,96,0.00,,---,1.40,88.00,VWS V14.00,2013-07-22 18:00:00,
2013-07-22 13:05:00,74.3,73.1,29.91,South,171,0.0,10.0,96,0.00,,---,1.40,105.00,VWS V14.00,2013-07-22 18:05:00,
2013-07-22 13:10:00,74.2,73.0,29.91,South,172,0.0,10.0,96,0.00,,---,1.40,120.00,VWS V14.00,2013-07-22 18:10:00,
2013-07-22 13:15:00,74.2,73.0,29.91,SSE,148,4.0,10.0,96,0.00,,---,1.40,155.00,VWS V14.00,2013-07-22 18:15:00,
2013-07-22 13:20:00,74.2,73.0,29.90,SSE,148,0.0,10.0,96,0.00,,---,1.40,158.00,VWS V14.00,2013-07-22 18:20:00,
2013-07-22 13:25:00,74.2,73.0,29.90,SSE,164,0.0,10.0,96,0.00,,---,1.40,183.00,VWS V14.00,2013-07-22 18:25:00,
2013-07-22 13:30:00,74.2,73.0,29.90,SSE,164,0.0,10.0,96,0.00,,---,1.40,190.00,VWS V14.00,2013-07-22 18:30:00,
2013-07-22 13:31:00,74.1,72.9,29.90,SSE,163,0.0,0.0,96,0.00,,---,1.40,244.00,VWS V14.00,2013-07-22 18:31:00,
2013-07-22 13:36:00,74.4,73.5,29.90,SSE,164,0.0,0.0,97,0.00,,---,1.40,308.00,VWS V14.00,2013-07-22 18:36:00,
2013-07-22 13:41:00,74.6,73.7,29.91,SSW,198,0.0,0.0,97,0.00,,---,1.40,374.00,VWS V14.00,2013-07-22 18:41:00,
2013-07-22 13:46:00,74.8,73.9,29.91,SSW,195,0.0,0.0,97,0.00,,---,1.40,420.00,VWS V14.00,2013-07-22 18:46:00,
2013-07-22 13:51:00,74.9,74.0,29.91,South,178,0.0,0.0,97,0.00,,---,1.40,387.00,VWS V14.00,2013-07-22 18:51:00,
2013-07-22 13:56:00,75.1,74.2,29.91,SW,215,0.0,0.0,97,0.00,,---,1.40,418.00,VWS V14.00,2013-07-22 18:56:00,
2013-07-22 14:00:00,75.1,74.2,29.91,SW,215,0.0,1.0,97,0.00,,---,1.40,418.00,VWS V14.00,2013-07-22 19:00:00,
2013-07-22 14:01:00,75.5,74.6,29.90,SSW,192,0.0,1.0,97,0.00,,---,1.40,483.00,VWS V14.00,2013-07-22 19:01:00,
2013-07-22 14:06:00,75.8,74.9,29.90,SSW,200,0.0,6.0,97,0.00,,---,1.40,638.00,VWS V14.00,2013-07-22 19:06:00,
2013-07-22 14:11:00,76.4,75.5,29.90,SSW,198,5.0,6.0,97,0.00,,---,1.40,726.00,VWS V14.00,2013-07-22 19:11:00,
2013-07-22 14:16:00,76.7,75.8,29.90,SSE,167,0.0,9.0,97,0.00,,---,1.40,1227.00,VWS V14.00,2013-07-22 19:16:00,
2013-07-22 14:21:00,77.3,76.1,29.91,SSW,209,0.0,10.0,96,0.00,,---,1.40,998.00,VWS V14.00,2013-07-22 19:21:00,
2013-07-22 14:26:00,77.4,75.9,29.90,South,187,0.0,0.0,95,0.00,,---,1.40,946.00,VWS V14.00,2013-07-22 19:26:00,
2013-07-22 14:30:00,77.4,75.9,29.90,South,187,0.0,10.0,95,0.00,,---,1.40,946.00,VWS V14.00,2013-07-22 19:30:00,
2013-07-22 14:31:00,77.9,76.4,29.90,SSE,166,4.0,7.0,95,0.00,,---,1.40,944.00,VWS V14.00,2013-07-22 19:31:00,
2013-07-22 14:36:00,78.0,76.1,29.90,SSE,162,6.0,12.0,94,0.00,,---,1.40,947.00,VWS V14.00,2013-07-22 19:36:00,
2013-07-22 14:41:00,78.3,76.4,29.90,WSW,250,2.0,12.0,94,0.00,,---,1.40,882.00,VWS V14.00,2013-07-22 19:41:00,
2013-07-22 14:47:00,78.5,76.3,29.90,South,188,0.0,12.0,93,0.00,,---,1.40,904.00,VWS V14.00,2013-07-22 19:47:00,
2013-07-22 14:52:00,78.7,76.2,29.90,SSW,210,3.0,12.0,92,0.00,,---,1.40,661.00,VWS V14.00,2013-07-22 19:52:00,
2013-07-22 14:57:00,78.8,75.9,29.89,South,189,5.0,5.0,91,0.00,,---,1.40,884.00,VWS V14.00,2013-07-22 19:57:00,
2013-07-22 15:00:00,78.8,76.3,29.89,South,189,2.0,12.0,92,0.00,,---,1.40,888.00,VWS V14.00,2013-07-22 20:00:00,
2013-07-22 15:02:00,79.3,76.8,29.89,West,259,7.0,7.0,92,0.00,,---,1.40,877.00,VWS V14.00,2013-07-22 20:02:00,
2013-07-22 15:07:00,79.7,76.8,29.89,SSW,208,0.0,7.0,91,0.00,,---,1.40,789.00,VWS V14.00,2013-07-22 20:07:00,
2013-07-22 15:12:00,80.3,77.4,29.89,WSW,240,1.0,8.0,91,0.00,,---,1.40,958.00,VWS V14.00,2013-07-22 20:12:00,
2013-07-22 15:16:00,80.7,77.5,29.88,WSW,247,0.0,8.0,90,0.00,,---,1.40,891.00,VWS V14.00,2013-07-22 20:16:00,
2013-07-22 15:17:00,80.7,77.5,29.88,WSW,246,0.0,8.0,90,0.00,,---,1.40,891.00,VWS V14.00,2013-07-22 20:17:00,
2013-07-22 15:22:00,81.1,77.2,29.87,SW,232,0.0,10.0,88,0.00,,---,1.40,881.00,VWS V14.00,2013-07-22 20:22:00,
2013-07-22 15:27:00,81.5,77.6,29.87,West,272,3.0,3.0,88,0.00,,---,1.40,889.00,VWS V14.00,2013-07-22 20:27:00,
2013-07-22 15:30:00,81.4,77.8,29.87,West,261,0.0,10.0,89,0.00,,---,1.40,909.00,VWS V14.00,2013-07-22 20:30:00,
2013-07-22 15:32:00,82.1,77.5,29.86,WSW,248,9.0,16.0,86,0.00,,---,1.40,851.00,VWS V14.00,2013-07-22 20:32:00,
2013-07-22 15:37:00,82.4,76.4,29.86,West,261,2.0,16.0,82,0.00,,---,1.40,411.00,VWS V14.00,2013-07-22 20:37:00,
2013-07-22 15:42:00,82.6,76.9,29.86,West,261,0.0,16.0,83,0.00,,---,1.40,856.00,VWS V14.00,2013-07-22 20:42:00,
2013-07-22 15:43:00,82.7,77.0,29.86,West,279,4.0,16.0,83,0.00,,---,1.40,844.00,VWS V14.00,2013-07-22 20:43:00,
2013-07-22 15:48:00,83.1,76.7,29.86,WSW,254,2.0,16.0,81,0.00,,---,1.40,812.00,VWS V14.00,2013-07-22 20:48:00,
2013-07-22 15:53:00,83.6,77.5,29.86,SW,236,3.0,16.0,82,0.00,,---,1.40,768.00,VWS V14.00,2013-07-22 20:53:00,
2013-07-22 15:58:00,83.8,77.0,29.86,SSW,213,6.0,6.0,80,0.00,,---,1.40,731.00,VWS V14.00,2013-07-22 20:58:00,
2013-07-22 16:00:00,83.8,77.0,29.86,WSW,257,2.0,16.0,80,0.00,,---,1.40,738.00,VWS V14.00,2013-07-22 21:00:00,
2013-07-22 16:03:00,84.0,77.9,29.85,WSW,242,1.0,6.0,82,0.00,,---,1.40,722.00,VWS V14.00,2013-07-22 21:03:00,
2013-07-22 16:08:00,84.4,77.6,29.86,SW,227,4.0,9.0,80,0.00,,---,1.40,708.00,VWS V14.00,2013-07-22 21:08:00,
2013-07-22 16:13:00,84.5,78.4,29.86,SW,219,4.0,14.0,82,0.00,,---,1.40,705.00,VWS V14.00,2013-07-22 21:13:00,
2013-07-22 16:18:00,84.4,78.3,29.86,WSW,247,0.0,14.0,82,0.00,,---,1.40,710.00,VWS V14.00,2013-07-22 21:18:00,
2013-07-22 16:23:00,84.5,78.4,29.86,WSW,255,0.0,14.0,82,0.00,,---,1.40,684.00,VWS V14.00,2013-07-22 21:23:00,
2013-07-22 16:28:00,84.7,78.2,29.86,NNW,348,0.0,6.0,81,0.00,,---,1.40,675.00,VWS V14.00,2013-07-22 21:28:00,
2013-07-22 16:30:00,84.6,78.5,29.86,WSW,250,0.0,14.0,82,0.00,,---,1.40,708.00,VWS V14.00,2013-07-22 21:30:00,
2013-07-22 16:33:00,84.8,77.9,29.86,SW,218,9.0,13.0,80,0.00,,---,1.40,708.00,VWS V14.00,2013-07-22 21:33:00,
2013-07-22 16:38:00,84.6,77.4,29.85,East,82,1.0,13.0,79,0.00,,---,1.40,714.00,VWS V14.00,2013-07-22 21:38:00,
2013-07-22 16:43:00,84.6,78.1,29.85,West,277,1.0,13.0,81,0.00,,---,1.40,598.00,VWS V14.00,2013-07-22 21:43:00,
2013-07-22 16:48:00,84.7,77.8,29.85,WNW,301,1.0,13.0,80,0.00,,---,1.40,624.00,VWS V14.00,2013-07-22 21:48:00,
2013-07-22 16:53:00,84.9,78.0,29.85,WSW,241,4.0,13.0,80,0.00,,---,1.40,622.00,VWS V14.00,2013-07-22 21:53:00,
2013-07-22 16:58:00,84.8,77.6,29.85,WNW,300,0.0,3.0,79,0.00,,---,1.40,250.00,VWS V14.00,2013-07-22 21:58:00,
2013-07-22 17:00:00,84.9,78.0,29.85,NNW,338,1.0,13.0,80,0.00,,---,1.40,554.00,VWS V14.00,2013-07-22 22:00:00,
2013-07-22 17:03:00,84.7,78.2,29.85,WSW,238,1.0,4.0,81,0.00,,---,1.40,216.00,VWS V14.00,2013-07-22 22:03:00,
2013-07-22 17:08:00,84.5,78.0,29.85,West,265,1.0,4.0,81,0.00,,---,1.40,169.00,VWS V14.00,2013-07-22 22:08:00,
2013-07-22 17:13:00,84.1,78.0,29.85,SW,235,0.0,4.0,82,0.00,,---,1.40,141.00,VWS V14.00,2013-07-22 22:13:00,
2013-07-22 17:18:00,83.8,77.7,29.85,West,259,0.0,4.0,82,0.00,,---,1.40,118.00,VWS V14.00,2013-07-22 22:18:00,
2013-07-22 17:23:00,83.5,78.2,29.84,WSW,255,0.0,4.0,84,0.00,,---,1.40,107.00,VWS V14.00,2013-07-22 22:23:00,
2013-07-22 17:28:00,83.3,78.0,29.84,WSW,255,0.0,0.0,84,0.00,,---,1.40,105.00,VWS V14.00,2013-07-22 22:28:00,
2013-07-22 17:30:00,83.4,78.1,29.85,WSW,255,0.0,4.0,84,0.00,,---,1.40,107.00,VWS V14.00,2013-07-22 22:30:00,
2013-07-22 17:33:00,83.1,78.1,29.85,WSW,255,0.0,0.0,85,0.00,,---,1.40,95.00,VWS V14.00,2013-07-22 22:33:00,
2013-07-22 17:38:00,82.9,77.9,29.85,WSW,255,0.0,0.0,85,0.00,,---,1.40,81.00,VWS V14.00,2013-07-22 22:38:00,
2013-07-22 17:43:00,82.8,77.8,29.86,WSW,255,0.0,0.0,85,0.00,,---,1.40,88.00,VWS V14.00,2013-07-22 22:43:00,
2013-07-22 17:48:00,82.6,77.6,29.86,WSW,255,0.0,0.0,85,0.00,,---,1.40,93.00,VWS V14.00,2013-07-22 22:48:00,
2013-07-22 17:53:00,82.5,77.5,29.86,WSW,257,0.0,1.0,85,0.00,,---,1.40,105.00,VWS V14.00,2013-07-22 22:53:00,
2013-07-22 17:58:00,82.4,77.4,29.86,WSW,257,0.0,0.0,85,0.00,,---,1.40,109.00,VWS V14.00,2013-07-22 22:58:00,
2013-07-22 18:00:00,82.4,77.4,29.86,WSW,257,0.0,1.0,85,0.00,,---,1.40,109.00,VWS V14.00,2013-07-22 23:00:00,
2013-07-22 18:03:00,82.3,77.7,29.85,WSW,257,0.0,0.0,86,0.00,,---,1.40,105.00,VWS V14.00,2013-07-22 23:03:00,
2013-07-22 18:08:00,82.1,77.2,29.85,WSW,257,0.0,0.0,85,0.00,,---,1.40,93.00,VWS V14.00,2013-07-22 23:08:00,
2013-07-22 18:13:00,82.0,76.7,29.86,WSW,257,0.0,0.0,84,0.00,,---,1.40,77.00,VWS V14.00,2013-07-22 23:13:00,
2013-07-22 18:18:00,81.8,76.1,29.86,WSW,255,0.0,0.0,83,0.00,,---,1.40,63.00,VWS V14.00,2013-07-22 23:18:00,
2013-07-22 18:23:00,81.6,75.9,29.85,WSW,250,0.0,0.0,83,0.00,,---,1.40,54.00,VWS V14.00,2013-07-22 23:23:00,
2013-07-22 18:28:00,81.4,75.4,29.85,WSW,250,0.0,0.0,82,0.00,,---,1.40,47.00,VWS V14.00,2013-07-22 23:28:00,
2013-07-22 18:30:00,81.5,75.5,29.85,WSW,250,0.0,0.0,82,0.00,,---,1.40,49.00,VWS V14.00,2013-07-22 23:30:00,
2013-07-22 18:33:00,81.2,75.6,29.85,WSW,250,0.0,0.0,83,0.00,,---,1.40,44.00,VWS V14.00,2013-07-22 23:33:00,
2013-07-22 18:38:00,81.2,75.6,29.85,WSW,250,0.0,0.0,83,0.00,,---,1.40,46.00,VWS V14.00,2013-07-22 23:38:00,
2013-07-22 18:42:00,81.1,75.8,29.84,WSW,250,0.0,0.0,84,0.00,,---,1.40,47.00,VWS V14.00,2013-07-22 23:42:00,
2013-07-22 18:48:00,81.1,76.2,29.84,WSW,250,0.0,0.0,85,0.00,,---,1.40,51.00,VWS V14.00,2013-07-22 23:48:00,
2013-07-22 18:53:00,81.0,76.1,29.85,WSW,250,0.0,0.0,85,0.00,,---,1.40,53.00,VWS V14.00,2013-07-22 23:53:00,
2013-07-22 18:58:00,80.9,76.3,29.84,WSW,250,0.0,0.0,86,0.00,,---,1.40,60.00,VWS V14.00,2013-07-22 23:58:00,
2013-07-22 19:00:00,81.0,76.1,29.84,WSW,250,0.0,0.0,85,0.00,,---,1.40,56.00,VWS V14.00,2013-07-23 00:00:00,
2013-07-22 19:03:00,81.0,76.4,29.84,WSW,250,0.0,0.0,86,0.00,,---,1.40,63.00,VWS V14.00,2013-07-23 00:03:00,
2013-07-22 19:08:00,81.0,76.4,29.84,WSW,250,0.0,0.0,86,0.00,,---,1.40,63.00,VWS V14.00,2013-07-23 00:08:00,
2013-07-22 19:13:00,81.0,76.8,29.85,WSW,250,0.0,0.0,87,0.00,,---,1.40,60.00,VWS V14.00,2013-07-23 00:13:00,
2013-07-22 19:18:00,80.9,77.0,29.85,WSW,250,0.0,0.0,88,0.00,,---,1.40,54.00,VWS V14.00,2013-07-23 00:18:00,
2013-07-22 19:22:00,80.7,76.8,29.85,WSW,250,0.0,0.0,88,0.00,,---,1.40,51.00,VWS V14.00,2013-07-23 00:22:00,
2013-07-22 19:27:00,80.6,76.7,29.85,WSW,250,0.0,0.0,88,0.00,,---,1.40,44.00,VWS V14.00,2013-07-23 00:27:00,
2013-07-22 19:30:00,80.6,76.7,29.85,WSW,250,0.0,0.0,88,0.00,,---,1.40,47.00,VWS V14.00,2013-07-23 00:30:00,
2013-07-22 19:32:00,80.3,76.4,29.85,WSW,250,0.0,0.0,88,0.00,,---,1.40,42.00,VWS V14.00,2013-07-23 00:32:00,
2013-07-22 19:37:00,80.1,76.2,29.85,WSW,250,0.0,0.0,88,0.00,,---,1.40,40.00,VWS V14.00,2013-07-23 00:37:00,
2013-07-22 19:42:00,80.0,76.1,29.85,WSW,250,0.0,0.0,88,0.00,,---,1.40,37.00,VWS V14.00,2013-07-23 00:42:00,
2013-07-22 19:48:00,79.8,75.9,29.85,WSW,250,0.0,0.0,88,0.00,,---,1.40,28.00,VWS V14.00,2013-07-23 00:48:00,
2013-07-22 19:52:00,79.8,75.9,29.85,WSW,250,0.0,0.0,88,0.00,,---,1.40,18.00,VWS V14.00,2013-07-23 00:52:00,
2013-07-22 19:57:00,79.7,76.2,29.85,WSW,250,0.0,0.0,89,0.00,,---,1.40,11.00,VWS V14.00,2013-07-23 00:57:00,
2013-07-22 20:00:00,79.7,76.2,29.85,WSW,250,0.0,0.0,89,0.00,,---,1.40,12.00,VWS V14.00,2013-07-23 01:00:00,
2013-07-22 20:02:00,79.6,76.1,29.85,WSW,250,0.0,0.0,89,0.00,,---,1.40,5.00,VWS V14.00,2013-07-23 01:02:00,
2013-07-22 20:07:00,79.5,76.0,29.86,WSW,250,0.0,0.0,89,0.00,,---,1.40,0.00,VWS V14.00,2013-07-23 01:07:00,
2013-07-22 20:12:00,79.4,75.9,29.86,WSW,250,0.0,0.0,89,0.00,,---,1.40,0.00,VWS V14.00,2013-07-23 01:12:00,
2013-07-22 20:17:00,79.3,75.8,29.86,WSW,250,0.0,0.0,89,0.00,,---,1.40,0.00,VWS V14.00,2013-07-23 01:17:00,
2013-07-22 20:22:00,79.2,75.7,29.86,WSW,250,0.0,0.0,89,0.00,,---,1.40,0.00,VWS V14.00,2013-07-23 01:22:00,
2013-07-22 20:27:00,79.2,75.7,29.86,WSW,250,0.0,0.0,89,0.00,,---,1.40,0.00,VWS V14.00,2013-07-23 01:27:00,
2013-07-22 20:30:00,79.2,75.7,29.86,WSW,250,0.0,0.0,89,0.00,,---,1.40,0.00,VWS V14.00,2013-07-23 01:30:00,
2013-07-22 20:32:00,79.1,75.6,29.86,WSW,250,0.0,0.0,89,0.00,,---,1.40,0.00,VWS V14.00,2013-07-23 01:32:00,
2013-07-22 20:37:00,79.0,75.5,29.86,WSW,250,0.0,0.0,89,0.00,,---,1.40,0.00,VWS V14.00,2013-07-23 01:37:00,
2013-07-22 20:42:00,78.9,75.4,29.86,WSW,250,0.0,0.0,89,0.00,,---,1.40,0.00,VWS V14.00,2013-07-23 01:42:00,
2013-07-22 20:47:00,78.8,75.3,29.86,WSW,250,0.0,0.0,89,0.00,,---,1.40,0.00,VWS V14.00,2013-07-23 01:47:00,
2013-07-22 20:52:00,78.7,75.5,29.85,WSW,250,0.0,0.0,90,0.00,,---,1.40,0.00,VWS V14.00,2013-07-23 01:52:00,
2013-07-22 20:57:00,78.6,75.4,29.86,WSW,250,0.0,0.0,90,0.00,,---,1.40,0.00,VWS V14.00,2013-07-23 01:57:00,
2013-07-22 21:00:00,78.6,75.4,29.85,WSW,250,0.0,0.0,90,0.00,,---,1.40,0.00,VWS V14.00,2013-07-23 02:00:00,
2013-07-22 21:02:00,78.5,75.3,29.86,WSW,250,0.0,0.0,90,0.00,,---,1.40,0.00,VWS V14.00,2013-07-23 02:02:00,
2013-07-22 21:07:00,78.4,75.2,29.86,WSW,250,0.0,0.0,90,0.00,,---,1.40,0.00,VWS V14.00,2013-07-23 02:07:00,
2013-07-22 21:12:00,78.3,75.1,29.86,WSW,250,0.0,0.0,90,0.00,,---,1.40,0.00,VWS V14.00,2013-07-23 02:12:00,
2013-07-22 21:17:00,78.2,75.0,29.86,WSW,250,0.0,0.0,90,0.00,,---,1.40,0.00,VWS V14.00,2013-07-23 02:17:00,
2013-07-22 21:22:00,78.2,75.0,29.86,WSW,250,0.0,0.0,90,0.00,,---,1.40,0.00,VWS V14.00,2013-07-23 02:22:00,
2013-07-22 21:27:00,78.2,75.4,29.86,WSW,250,0.0,0.0,91,0.00,,---,1.40,0.00,VWS V14.00,2013-07-23 02:27:00,
2013-07-22 21:30:00,78.2,75.4,29.86,WSW,250,0.0,0.0,91,0.00,,---,1.40,0.00,VWS V14.00,2013-07-23 02:30:00,
2013-07-22 21:32:00,78.2,75.4,29.86,WSW,250,0.0,0.0,91,0.00,,---,1.40,0.00,VWS V14.00,2013-07-23 02:32:00,
2013-07-22 21:37:00,78.2,75.4,29.86,WSW,250,0.0,0.0,91,0.00,,---,1.40,0.00,VWS V14.00,2013-07-23 02:37:00,
2013-07-22 21:42:00,78.2,75.4,29.86,WSW,250,0.0,0.0,91,0.00,,---,1.40,0.00,VWS V14.00,2013-07-23 02:42:00,
2013-07-22 21:47:00,78.1,75.3,29.86,WSW,250,0.0,0.0,91,0.00,,---,1.40,0.00,VWS V14.00,2013-07-23 02:47:00,
2013-07-22 21:52:00,78.1,75.3,29.85,WSW,250,0.0,0.0,91,0.00,,---,1.40,0.00,VWS V14.00,2013-07-23 02:52:00,
2013-07-22 21:57:00,78.0,75.2,29.86,WSW,250,0.0,0.0,91,0.00,,---,1.40,0.00,VWS V14.00,2013-07-23 02:57:00,
2013-07-22 22:00:00,78.0,75.2,29.86,WSW,250,0.0,0.0,91,0.00,,---,1.40,0.00,VWS V14.00,2013-07-23 03:00:00,
2013-07-22 22:02:00,78.0,75.2,29.86,WSW,250,0.0,0.0,91,0.00,,---,1.40,0.00,VWS V14.00,2013-07-23 03:02:00,
2013-07-22 22:07:00,77.9,75.1,29.86,WSW,250,0.0,0.0,91,0.00,,---,1.40,0.00,VWS V14.00,2013-07-23 03:07:00,
2013-07-22 22:12:00,77.9,75.1,29.85,WSW,250,0.0,0.0,91,0.00,,---,1.40,0.00,VWS V14.00,2013-07-23 03:12:00,
2013-07-22 22:17:00,77.9,75.1,29.86,WSW,250,0.0,0.0,91,0.00,,---,1.40,0.00,VWS V14.00,2013-07-23 03:17:00,
2013-07-22 22:22:00,77.8,75.0,29.86,WSW,250,0.0,0.0,91,0.00,,---,1.40,0.00,VWS V14.00,2013-07-23 03:22:00,
2013-07-22 22:27:00,77.8,75.3,29.86,WSW,250,0.0,0.0,92,0.00,,---,1.40,0.00,VWS V14.00,2013-07-23 03:27:00,
2013-07-22 22:30:00,77.8,75.3,29.86,WSW,250,0.0,0.0,92,0.00,,---,1.40,0.00,VWS V14.00,2013-07-23 03:30:00,
2013-07-22 22:32:00,77.9,75.4,29.86,WSW,250,0.0,0.0,92,0.00,,---,1.40,0.00,VWS V14.00,2013-07-23 03:32:00,
2013-07-22 22:37:00,77.9,75.7,29.86,South,190,0.0,0.0,93,0.00,,---,1.40,0.00,VWS V14.00,2013-07-23 03:37:00,
2013-07-22 22:42:00,78.0,75.8,29.86,South,190,0.0,0.0,93,0.00,,---,1.40,0.00,VWS V14.00,2013-07-23 03:42:00,
2013-07-22 22:47:00,78.1,75.9,29.86,South,175,0.0,0.0,93,0.00,,---,1.40,0.00,VWS V14.00,2013-07-23 03:47:00,
2013-07-22 22:52:00,78.2,76.0,29.86,South,175,0.0,0.0,93,0.00,,---,1.40,0.00,VWS V14.00,2013-07-23 03:52:00,
2013-07-22 22:57:00,78.3,76.1,29.86,South,175,0.0,0.0,93,0.00,,---,1.40,0.00,VWS V14.00,2013-07-23 03:57:00,
2013-07-22 23:00:00,78.3,76.1,29.86,South,175,0.0,0.0,93,0.00,,---,1.40,0.00,VWS V14.00,2013-07-23 04:00:00,
2013-07-22 23:01:00,78.3,76.1,29.86,South,175,0.0,0.0,93,0.00,,---,1.40,0.00,VWS V14.00,2013-07-23 04:01:00,
2013-07-22 23:06:00,78.3,76.1,29.86,South,175,0.0,0.0,93,0.00,,---,1.40,0.00,VWS V14.00,2013-07-23 04:06:00,
2013-07-22 23:11:00,78.4,76.2,29.86,South,175,0.0,0.0,93,0.00,,---,1.40,0.00,VWS V14.00,2013-07-23 04:11:00,
2013-07-22 23:16:00,78.4,76.5,29.86,South,173,0.0,0.0,94,0.00,,---,1.40,0.00,VWS V14.00,2013-07-23 04:16:00,
2013-07-22 23:21:00,78.5,76.6,29.86,South,173,0.0,0.0,94,0.00,,---,1.40,0.00,VWS V14.00,2013-07-23 04:21:00,
2013-07-22 23:26:00,78.5,76.6,29.86,South,173,0.0,0.0,94,0.00,,---,1.40,0.00,VWS V14.00,2013-07-23 04:26:00,
2013-07-22 23:30:00,78.5,76.6,29.86,South,173,0.0,0.0,94,0.00,,---,1.40,0.00,VWS V14.00,2013-07-23 04:30:00,
2013-07-22 23:31:00,78.6,76.7,29.86,South,173,0.0,0.0,94,0.00,,---,1.40,0.00,VWS V14.00,2013-07-23 04:31:00,
2013-07-22 23:36:00,78.6,76.7,29.86,South,173,0.0,0.0,94,0.00,,---,1.40,0.00,VWS V14.00,2013-07-23 04:36:00,
2013-07-22 23:41:00,78.6,76.7,29.86,South,173,0.0,0.0,94,0.00,,---,1.40,0.00,VWS V14.00,2013-07-23 04:41:00,
2013-07-22 23:46:00,78.6,76.7,29.86,South,173,0.0,0.0,94,0.00,,---,1.40,0.00,VWS V14.00,2013-07-23 04:46:00,
2013-07-22 23:51:00,78.5,76.6,29.86,South,173,0.0,0.0,94,0.00,,---,1.40,0.00,VWS V14.00,2013-07-23 04:51:00,
2013-07-22 23:56:00,78.4,76.5,29.87,South,173,0.0,0.0,94,0.00,,---,1.40,0.00,VWS V14.00,2013-07-23 04:56:00,